Starlink 35093

operational
NORAD ID: 65478 Int'l Des: 2025-195 Owner: SPXS Country: US Constellation: starlink
LEOCIRCULAR

About Starlink 35093

Description loading...

Live Position

Loading 3D Globe...

Upcoming Passes

Altitude History

Altitude vs Time

uPlot chart will show altitude changes over time

Two-Line Element Set

1 65478U 25195W 25293.85997624 .00075709 00000-0 18807-2 0 9997
2 65478 53.1609 189.1954 0000710 91.1102 268.9984 15.39673474 8547
Epoch: Oct 20, 2025 • Age: 16 hours

Current Status

Altitude 452.8 km
Velocity 7.65 km/s
Sub-Earth Point 53.15°N, 62.75°E
Launch Date Sep 3, 2025
Age 0.1 years
Type internet

Technical Details

Classification Payload
Mass 575.00 kg
Dry Mass 530.00 kg
Total Mass 575.00 kg
Length 0.30 m
Diameter 4.10 m
Span 29.00 m
Shape Box + pan
Manufacturer SPXS
Bus Type Starlink V2MO
Phase Status In Orbit
Owner/State SPXS/US

Large Constellations

Loading constellations...